[[[{"header":{"parameterUnit":"kt","parameterCategory":2,"dx":1,"dy":1,"la1":30.253999710083008,"la2":30.299108505249023,"lo1":-89.0895004272461,"lo2":-89.04439544677734,"nx":28,"ny":28,"refTime":"2022-09-17T21:00:00:Z","depth":0,"parameterNumber":1,"parameterNumberName":"U-component_of_WINDS"},"data":[-3.8354,-3.8378,-3.8362,-3.8382,-3.837,-3.8381,-3.838,-3.8376,-3.8368,-3.8379,-3.8383,-3.8367,-3.8353,-3.8352,-3.8355,-3.8347,-3.835,-3.8373,-3.8361,-3.8276,-3.8263,-3.8251,-3.8244,-3.8373,-3.8373,-3.8451,-3.8451,-3.8452,-3.8299,-3.8288,-3.8293,-3.8286,-3.8291,-3.826,-3.8251,-3.8257,-3.8268,-3.8258,-3.8259,-3.8267,-3.827,-3.8247,-3.8247,-3.8258,-3.8243,-3.826,-3.8259,-3.8257,-3.8166,-3.816,-3.8272,-3.8272,-3.8272,-3.8272,-3.8272,-3.8272,-3.8193,-3.8208,-3.8194,-3.8199,-3.819,-3.8186,-3.8197,-3.8177,-3.8181,-3.8179,-3.8156,-3.8167,-3.8153,-3.8143,-3.8135,-3.8143,-3.8121,-3.8133,-3.8136,-3.814,-3.8148,-3.8042,-3.8141,-3.8141,-3.8141,-3.814,-3.814,0,-3.8111,-3.8095,-3.8098,-3.8096,-3.8098,-3.8095,-3.8088,-3.8094,-3.8053,-3.8058,-3.8063,-3.8063,-3.8063,-3.8066,-3.8061,-3.8049,-3.8016,-3.801,-3.8018,-3.803,-3.8043,-3.8039,-3.7893,-3.8007,-3.8005,-3.8004,-3.8004,-3.8003,-3.8004,-3.8022,-3.7997,-3.8002,-3.7993,-3.8,-3.8,-3.7962,-3.7964,-3.795,-3.7964,-3.7966,-3.7966,-3.7977,-3.7951,-3.7951,-3.7934,-3.798,-3.7934,-3.7946,-3.7937,-3.7937,-3.7939,-3.799,-3.7992,-3.7993,-3.7994,0,-3.7946,-3.7916,-3.7937,-3.7909,-3.7903,-3.7924,-3.79,-3.7912,-3.789,-3.7904,-3.7905,-3.787,-3.7875,-3.7842,-3.784,-3.7823,-3.7859,-3.7842,-3.7865,-3.786,-3.7899,-3.7897,-3.8028,-3.8044,-3.7908,-3.791,-3.7911,0,-3.7843,-3.7868,-3.7821,-3.7835,-3.7862,-3.7821,-3.7849,-3.7832,-3.7818,-3.7828,-3.7784,-3.7795,-3.7749,-3.7756,-3.7729,-3.7753,-3.7751,-3.774,-3.7733,-3.7744,-3.7746,-3.7744,-3.7739,-3.7713,-3.7713,-3.7712,-3.7712,0,-3.7756,-3.7758,-3.7781,-3.7776,-3.7747,-3.7759,-3.7747,-3.773,-3.773,-3.7724,-3.7724,-3.772,-3.7718,-3.7716,-3.7682,-3.7652,-3.7709,-3.7661,-3.7697,-3.7698,-3.7711,-3.7711,-3.7836,-3.7711,-3.7711,-3.7711,-3.771,0,-3.7668,-3.7663,-3.7699,-3.7674,-3.7676,-3.7691,-3.7684,-3.7688,-3.7673,-3.7657,-3.7652,-3.7617,-3.7633,-3.7588,-3.761,-3.7581,-3.7582,-3.7571,-3.7573,-3.7573,-3.7523,-3.7599,-3.772,-3.7732,-3.7573,-3.7572,-3.7571,0,-3.7578,-3.7605,-3.757,-3.7605,-3.7613,-3.7563,-3.7578,-3.7565,-3.7545,-3.7548,-3.7525,-3.7529,-3.7488,-3.7485,-3.75,-3.7476,-3.7515,-3.747,-3.7477,-3.7478,-3.7485,-3.7596,-3.7622,-3.7698,-3.7555,-3.7557,-3.7558,0,-3.7503,-3.7466,-3.7475,-3.7467,-3.7442,-3.7448,-3.7465,-3.7459,-3.7464,-3.7453,-3.7466,-3.747,-3.744,-3.7433,-3.7404,-3.7422,-3.7488,-3.7386,-3.7385,-3.7407,-3.7544,-3.757,-3.7583,-3.7464,-3.7466,-3.7467,-3.7546,0,-3.738,-3.7388,-3.7409,-3.7392,-3.7391,-3.741,-3.7372,-3.7375,-3.7348,-3.7325,-3.7343,-3.7321,-3.7314,-3.7318,-3.7291,-3.7341,-3.7327,-3.7294,-3.7247,-3.732,-3.7345,-3.7355,-3.7213,-3.7212,-3.721,-3.7209,0,0,-3.7302,-3.7312,-3.7271,-3.7285,-3.7281,-3.7227,-3.725,-3.724,-3.722,-3.7219,-3.7192,-3.7194,-3.7177,-3.7203,-3.7222,-3.7219,-3.7225,-3.72,-3.7285,-3.7294,-3.7302,-3.7329,-3.734,-3.7207,-3.7206,-3.7206,-3.7205,0,-3.7248,-3.7232,-3.7255,-3.7242,-3.7222,-3.7196,-3.7202,-3.7171,-3.7158,-3.7174,-3.7128,-3.7134,-3.7135,-3.7124,-3.7118,-3.7196,-3.7161,-3.7197,-3.7253,-3.7273,-3.7283,-3.7292,-3.7322,-3.7333,-3.7202,-3.7202,-3.7202,0,-3.7169,-3.7147,-3.7153,-3.714,-3.7126,-3.7134,-3.7076,-3.7086,-3.7091,-3.7029,-3.7046,-3.7028,-3.7009,-3.7037,-3.7048,-3.7024,-3.7106,-3.7072,-3.7079,-3.708,-3.7097,-3.711,-3.7121,-3.6974,-3.6973,-3.6972,0,0,-3.7128,-3.7134,-3.7096,-3.7125,-3.712,-3.7081,-3.708,-3.7052,-3.7035,-3.7028,-3.7004,-3.6989,-3.6989,-3.699,-3.6988,-3.7025,-3.7018,-3.7045,-3.7056,-3.7065,-3.707,-3.7091,-3.7103,-3.697,-3.697,-3.697,0,0,-3.7108,-3.7065,-3.704,-3.7068,-3.7054,-3.7019,-3.7038,-3.7006,-3.6999,-3.6993,-3.6944,-3.6938,-3.6964,-3.6947,-3.692,-3.6971,-3.6925,-3.6931,-3.6981,-3.6994,-3.7004,-3.7008,-3.6857,0,0,0,0,0,-3.7032,-3.7071,-3.7048,-3.7047,-3.7029,-3.7032,-3.7029,-3.699,-3.6959,-3.6976,-3.695,-3.6912,-3.6923,-3.6898,-3.6898,-3.6928,-3.6939,-3.6945,-3.695,-3.7022,-3.7036,-3.7048,0,0,0,0,0,0,-3.7032,-3.703,-3.7047,-3.7013,-3.7009,-3.703,-3.6969,-3.696,-3.6956,-3.6949,-3.6918,-3.6911,-3.6877,-3.6895,-3.6896,-3.6925,-3.6856,-3.6942,-3.6946,-3.695,-3.7027,-3.7039,-3.7049,0,0,0,0,0,-3.7031,-3.703,-3.701,-3.7013,-3.7009,-3.6966,-3.6967,-3.6959,-3.6956,-3.6916,-3.6907,-3.6926,-3.6879,-3.6877,-3.6895,-3.6926,-3.6856,-3.6856,-3.6944,-3.6948,-3.6951,-3.7033,0,0,0,0,0,0,-3.703,-3.7022,-3.7009,-3.7006,-3.6995,-3.6964,-3.6958,-3.6958,-3.6921,-3.6914,-3.6921,-3.6916,-3.6881,-3.6879,-3.6877,-3.6929,-3.6856,-3.6856,-3.6856,-3.6947,-3.695,-3.6953,0,0,0,0,0,0,-3.7022,-3.702,-3.7007,-3.6987,-3.6982,-3.6963,-3.6957,-3.6967,-3.6922,-3.6929,-3.6923,-3.6919,-3.6884,-3.6881,-3.6879,-3.6895,-3.6855,-3.6856,-3.6856,-3.6856,-3.695,-3.6952,0,0,0,0,0,0,-3.7021,-3.7019,-3.6987,-3.6983,-3.6978,-3.6946,-3.697,-3.6953,-3.6905,-3.6932,-3.6899,-3.6897,-3.6886,-3.6884,-3.6881,-3.6898,-3.6896,-3.6855,-3.6856,-3.6856,-3.6856,0,0,0,0,0,0,0,-3.7019,-3.7041,-3.7025,-3.698,-3.6976,-3.6982,-3.6981,-3.698,-3.6904,-3.6902,-3.69,-3.6898,-3.6854,-3.6854,-3.6855,-3.69,0,0,-3.6855,-3.6855,0,0,0,0,0,0,0,0,-3.7041,-3.7041,-3.7024,-3.7024,-3.7023,-3.6982,-3.6981,-3.698,-3.6904,-3.6902,-3.69,-3.6899,-3.6854,-3.6854,-3.6855,0,0,0,0,0,0,0,0,0,0,0,0,0,0,0,-3.7024,-3.7024,0,-3.6982,-3.6981,-3.6981,-3.6904,-3.6902,-3.6901,-3.6899,-3.6854,-3.6854,-3.6855,0,0,0,0,0,0,0,0,0,0,0,0,0,0,0,0,0,0,0,0,0,0,0,0,0,0,0,0,0,0,0,0,0,0,0,0,0,0,0,0,0,0,0,0,0,0,0,0,0,0,0,0,0,0,0,0,0,0,0,0,0,0,0,0,0,0,0,0,0]}],[{"header":{"parameterUnit":"kt","parameterCategory":2,"dx":1,"dy":1,"la1":30.253999710083008,"la2":30.299108505249023,"lo1":-89.0895004272461,"lo2":-89.04439544677734,"nx":28,"ny":28,"refTime":"2022-09-17T21:00:00:Z","depth":0,"parameterNumber":2,"parameterNumberName":"V-component_of_WINDS"},"data":[-4.7897,-4.799,-4.8008,-4.8123,-4.8158,-4.824,-4.8275,-4.8321,-4.8362,-4.8461,-4.8521,-4.8547,-4.8595,-4.867,-4.8736,-4.8746,-4.8774,-4.8794,-4.8803,-4.8695,-4.8682,-4.8669,-4.8649,-4.8799,-4.8799,-4.8913,-4.8914,-4.8915,-4.7817,-4.7853,-4.7918,-4.7994,-4.8051,-4.8042,-4.8101,-4.8149,-4.8222,-4.8273,-4.8332,-4.842,-4.8492,-4.8533,-4.8605,-4.8649,-4.8649,-4.8667,-4.8666,-4.8674,-4.8559,-4.8538,-4.8666,-4.8666,-4.8666,-4.8666,-4.8666,-4.8666,-4.7676,-4.7732,-4.7788,-4.786,-4.7902,-4.7953,-4.8008,-4.804,-4.8104,-4.8182,-4.8189,-4.8272,-4.8326,-4.842,-4.8456,-4.8521,-4.8504,-4.853,-4.8537,-4.8544,-4.855,-4.8387,-4.8533,-4.8533,-4.8533,-4.8532,-4.8532,0,-4.758,-4.7592,-4.7656,-4.7725,-4.7778,-4.7833,-4.7887,-4.7922,-4.7951,-4.8002,-4.8078,-4.8125,-4.8217,-4.8291,-4.8361,-4.8393,-4.8391,-4.8391,-4.8409,-4.8409,-4.84,-4.8409,-4.8223,-4.8388,-4.8386,-4.8386,-4.8385,-4.8384,-4.7443,-4.7504,-4.7571,-4.7614,-4.7648,-4.7716,-4.776,-4.7781,-4.7827,-4.7896,-4.7943,-4.8016,-4.8077,-4.8195,-4.8231,-4.83,-4.83,-4.8361,-4.831,-4.8307,-4.8305,-4.8302,-4.831,-4.8372,-4.8374,-4.8375,-4.8376,0,-4.7364,-4.7393,-4.7494,-4.7554,-4.7571,-4.7634,-4.7686,-4.7741,-4.7766,-4.7845,-4.7865,-4.7904,-4.7978,-4.8005,-4.8094,-4.8106,-4.8212,-4.8208,-4.8194,-4.8196,-4.8255,-4.8251,-4.844,-4.8466,-4.8308,-4.8309,-4.8311,0,-4.726,-4.7339,-4.7378,-4.7435,-4.7524,-4.7543,-4.7631,-4.7661,-4.7708,-4.7771,-4.7771,-4.783,-4.7855,-4.7918,-4.7935,-4.8025,-4.8041,-4.8057,-4.8061,-4.8059,-4.8058,-4.8086,-4.808,-4.8065,-4.8064,-4.8063,-4.8062,0,-4.7137,-4.7249,-4.7341,-4.7372,-4.7445,-4.7487,-4.7519,-4.7572,-4.7615,-4.7675,-4.7703,-4.777,-4.7808,-4.786,-4.7883,-4.7848,-4.7993,-4.7949,-4.8009,-4.8009,-4.8043,-4.8041,-4.8198,-4.8061,-4.8061,-4.806,-4.806,0,-4.7058,-4.7118,-4.7247,-4.7308,-4.7337,-4.7396,-4.7466,-4.7523,-4.7579,-4.7594,-4.7641,-4.7645,-4.7725,-4.768,-4.779,-4.7738,-4.7775,-4.7797,-4.7801,-4.7813,-4.7763,-4.7852,-4.7997,-4.8015,-4.782,-4.7818,-4.7816,0,-4.691,-4.7047,-4.7066,-4.7187,-4.7255,-4.7252,-4.7319,-4.7368,-4.7394,-4.7455,-4.7483,-4.7552,-4.7524,-4.7549,-4.76,-4.7632,-4.7699,-4.7623,-4.7713,-4.7716,-4.7702,-4.7834,-4.7851,-4.7962,-4.7791,-4.7793,-4.7795,0,-4.68,-4.6888,-4.6908,-4.6945,-4.7014,-4.7069,-4.7145,-4.7218,-4.7258,-4.7313,-4.7378,-4.7474,-4.7458,-4.7499,-4.751,-4.7561,-4.7654,-4.7537,-4.7539,-4.756,-4.7779,-4.7795,-4.7814,-4.765,-4.7653,-4.7656,-4.7775,0,-4.668,-4.6752,-4.6807,-4.6886,-4.6933,-4.701,-4.7039,-4.7085,-4.7091,-4.7117,-4.7212,-4.726,-4.7334,-4.736,-4.7366,-4.7475,-4.7462,-4.7443,-4.7404,-4.7489,-4.753,-4.7546,-4.7341,-4.734,-4.734,-4.7339,0,0,-4.6533,-4.6637,-4.6655,-4.673,-4.6772,-4.6768,-4.6848,-4.6887,-4.6967,-4.6996,-4.6974,-4.7117,-4.7156,-4.7269,-4.7298,-4.7327,-4.735,-4.7319,-4.7448,-4.746,-4.7471,-4.7514,-4.753,-4.7337,-4.7337,-4.7337,-4.7336,0,-4.6496,-4.6537,-4.6615,-4.6657,-4.672,-4.6743,-4.6762,-4.6824,-4.6844,-4.6937,-4.6934,-4.6994,-4.7107,-4.7151,-4.7188,-4.7305,-4.73,-4.7324,-4.7379,-4.7438,-4.7451,-4.7463,-4.7507,-4.7523,-4.7334,-4.7335,-4.7335,0,-4.6395,-4.6441,-4.6482,-4.6575,-4.6616,-4.6684,-4.665,-4.6723,-4.6775,-4.6768,-4.6861,-4.6891,-4.6951,-4.7053,-4.7099,-4.7081,-4.7253,-4.7203,-4.7209,-4.7216,-4.7275,-4.729,-4.7304,-4.712,-4.712,-4.7119,0,0,-4.636,-4.6426,-4.6482,-4.6569,-4.6595,-4.6632,-4.6671,-4.6681,-4.6735,-4.6757,-4.6796,-4.6849,-4.6915,-4.6958,-4.7021,-4.7128,-4.7144,-4.7175,-4.7186,-4.7194,-4.7205,-4.7266,-4.7281,-4.7116,-4.7116,-4.7115,0,0,-4.6343,-4.6411,-4.6408,-4.6513,-4.6564,-4.6625,-4.6677,-4.6675,-4.6735,-4.673,-4.6751,-4.6766,-4.6861,-4.6891,-4.6844,-4.7008,-4.6968,-4.698,-4.6986,-4.6999,-4.7009,-4.7001,-4.6817,0,0,0,0,0,-4.6321,-4.6403,-4.6399,-4.6421,-4.6539,-4.6627,-4.6642,-4.6662,-4.6634,-4.6674,-4.6707,-4.6698,-4.687,-4.6829,-4.6851,-4.6904,-4.7074,-4.7081,-4.7088,-4.7121,-4.7134,-4.7145,0,0,0,0,0,0,-4.633,-4.6357,-4.6397,-4.6461,-4.6488,-4.6624,-4.6581,-4.6589,-4.663,-4.6627,-4.6692,-4.67,-4.6719,-4.682,-4.6839,-4.6889,-4.681,-4.7077,-4.7083,-4.7089,-4.7125,-4.7136,-4.7146,0,0,0,0,0,-4.6337,-4.6359,-4.6542,-4.646,-4.6483,-4.6529,-4.6578,-4.6584,-4.6616,-4.6667,-4.6675,-4.6627,-4.6719,-4.6737,-4.6831,-4.688,-4.6797,-4.6804,-4.7081,-4.7086,-4.709,-4.7131,0,0,0,0,0,0,-4.6343,-4.6365,-4.6547,-4.6555,-4.6431,-4.6521,-4.6536,-4.658,-4.6654,-4.6663,-4.6603,-4.66,-4.6721,-4.6734,-4.6748,-4.6876,-4.6787,-4.6794,-4.6798,-4.7085,-4.7088,-4.7092,0,0,0,0,0,0,-4.6353,-4.6372,-4.6551,-4.6513,-4.6517,-4.6515,-4.6528,-4.661,-4.6655,-4.6586,-4.6585,-4.66,-4.6701,-4.6733,-4.6743,-4.6871,-4.6779,-4.6786,-4.679,-4.6793,-4.7088,-4.7091,0,0,0,0,0,0,-4.6361,-4.6377,-4.6511,-4.6514,-4.6517,-4.6606,-4.6588,-4.6707,-4.6623,-4.6582,-4.6616,-4.6613,-4.67,-4.6711,-4.674,-4.6864,-4.6869,-4.6779,-4.6784,-4.6787,-4.6789,0,0,0,0,0,0,0,-4.6368,-4.6259,-4.6501,-4.6515,-4.6518,-4.6627,-4.6629,-4.6631,-4.6622,-4.6619,-4.6617,-4.6614,-4.674,-4.6747,-4.6755,-4.6858,0,0,-4.6778,-4.6782,0,0,0,0,0,0,0,0,-4.6253,-4.6258,-4.6502,-4.6503,-4.6505,-4.6627,-4.6629,-4.663,-4.6622,-4.6619,-4.6617,-4.6615,-4.6742,-4.6748,-4.6754,0,0,0,0,0,0,0,0,0,0,0,0,0,0,0,-4.6502,-4.6503,0,-4.6627,-4.6629,-4.663,-4.6621,-4.6619,-4.6618,-4.6616,-4.6743,-4.6748,-4.6753,0,0,0,0,0,0,0,0,0,0,0,0,0,0,0,0,0,0,0,0,0,0,0,0,0,0,0,0,0,0,0,0,0,0,0,0,0,0,0,0,0,0,0,0,0,0,0,0,0,0,0,0,0,0,0,0,0,0,0,0,0,0,0,0,0,0,0,0,0]}]]]